Location: Fazenda Monte Alegre
(4.8500°S, 38.0333°W)
Time: 17:21:36
(UTC+00:00)

BREEZE-M DEB (TANK) - Pass Details

Date: 24 September 2020
Orbit: 276 x 20416 km, 49.3° (Epoch: 25 October)

Event Time Altitude Azimuth Distance (km) Brightness Sun altitude
Rises 21:49:52 0° 219° (SW) 14,836 10.7 -21.3°
Reaches altitude 10° 22:07:51 10° 217° (SW) 9,776 9.6 -25.8°
Maximum altitude 22:30:44 83° 131° (SE) 1,361 4.5 -31.5°
Enters shadow 22:31:11 78° 75° (ENE) 1,299 4.3 -31.6°
